Regional Weather Roundup
Issued by NWS

Home | Current Version | Previous Version | Graphics & Text | Print | Product List | Glossary On
Versions: 1 2 3 4 5 6 7 8 9 10 11 12 13 14 15 16 17 18 19 20 21 22 23 24 25 26 27 28 29 30 31 32 33 34 35 36 37 38 39 40 41 42 43 44 45 46 47 48 49 50
508
ASUS43 KDMX 250308
RWRIA

WEATHER ROUNDUP FOR IOWA
NATIONAL WEATHER SERVICE DES MOINES IA
1000 PM CDT WED AUG 24 2016

NOTE: "FAIR" INDICATES FEW OR NO CLOUDS BELOW 12,000 FEET WITH NO
SIGNIFICANT WEATHER AND/OR OBSTRUCTIONS TO VISIBILITY.

* - THESE STATIONS ARE NOT NWS STATIONS...THUS NOT UNDER NWS
QUALITY CONTROL.  THEY ALSO DO NOT REPORT WEATHER SUCH
AS PRECIPITATION OR FOG.

IAZ001>003-012>014-020>022-031>034-043>046-250400-
   NORTHWEST IOWA

CITY           SKY/WX    TMP DP  RH WIND       PRES   REMARKS
CARROLL *      CLOUDY    68  64  88 N5        30.04S
CHEROKEE *     CLOUDY    67  64  91 W3        30.07R
DENISON *      CLOUDY    66  64  94 NW8       30.05R
LE MARS *      CLOUDY    64  61  88 CALM      30.09R
ORANGE CITY *  CLOUDY    63  61  94 NW7       30.08R
SHELDON *      CLOUDY    63  61  94 W7        30.06R
SIOUX CITY     PTCLDY    64  59  83 NW6       30.07R
SPENCER        CLOUDY    63  61  93 W5        30.07R
STORM LAKE *   CLOUDY    66  64  94 NW7G13    30.07R
$$

IAZ055>058-069>071-079>083-090>094-250400-
   SOUTHWEST IOWA

CITY           SKY/WX    TMP DP  RH WIND       PRES   REMARKS
ATLANTIC *     CLOUDY    68  66  94 CALM      30.05S
AUDUBON *      DRIZZLE   70  64  83 CALM      30.05S
CLARINDA *       N/A     70  70 100 MISG      30.04F
COUNCIL BLFS * CLOUDY    68  64  88 NW5       30.07R
CRESTON *      CLOUDY    70  66  88 CALM      30.05F
HARLAN  *      CLOUDY    66  66 100 NW3       30.10R
LAMONI         LGT RAIN  68  67  96 N8        30.02F
RED OAK *      CLOUDY    68  66  94 CALM      30.04F
SHENANDOAH *   CLOUDY    68 -38   1 NW5       30.05S
$$

IAZ047>049-059>061-072>074-084-250400-
   CENTRAL IOWA

CITY           SKY/WX    TMP DP  RH WIND       PRES   REMARKS
AMES           CLOUDY    72  67  84 NW7       30.03R
ANKENY *         N/A    N/A N/A N/A MISG        N/A
BOONE *          N/A     72  64  78 NW6       30.03S
CHARITON *     DRIZZLE   70  68  94 MISG      30.03F
DES MOINES     CLOUDY    73  69  87 NW3       30.02S
GRINNELL*      CLOUDY    73  70  92 W5        30.04R
KNOXVILLE *    CLOUDY    68  66  94 W6        30.02S
MARSHALLTOWN   CLOUDY    71  70  96 N8        30.00R
NEWTON *       CLOUDY    72  72 100 SW7       30.02R FOG
PELLA *        LGT RAIN  68  67  96 W6        30.04S
PERRY *          N/A     69  67  96 CALM      30.04S
$$

IAZ004>006-015-016-023>025-035-036-250400-
   NORTH CENTRAL IOWA

CITY           SKY/WX    TMP DP  RH WIND       PRES   REMARKS
ALGONA *       CLOUDY    68  61  77 NW6       30.05R
ESTHERVILLE    CLOUDY    63  62  97 W6        30.05R
FORT DODGE *   PTCLDY    68  63  83 CALM      30.05R
MASON CITY     CLOUDY    64  62  93 W6        30.05R
FOREST CITY *    N/A    N/A N/A N/A MISG        N/A
WEBSTER CITY * CLOUDY    66  66 100 CALM      30.02S
IOWA FALLS *     N/A     68  64  86 NW7       30.04R
$$

IAZ007>011-017>019-026>030-037>042-050>054-066-250400-
   NORTHEAST IOWA

CITY           SKY/WX    TMP DP  RH WIND       PRES   REMARKS
CEDAR RAPIDS   CLOUDY    73  73 100 CALM      29.97R
CHARLES CITY * CLOUDY    68  66  94 NW9       30.02R
CLINTON *      RAIN      74  72  93 W6        30.00R
DECORAH *      CLOUDY    70  66  88 NW5       29.99R
DUBUQUE        CLOUDY    73  71  93 NW6       29.98S
MONTICELLO *   CLOUDY    75  72  88 NW10      29.96F
OELWEIN *      CLOUDY    70  68  94 NW6       30.00R
WATERLOO       PTCLDY    72  67  84 W6        29.99R
$$

IAZ064-065-067-068-078-250400-
   EAST CENTRAL IOWA

CITY           SKY/WX    TMP DP  RH WIND       PRES   REMARKS
DAVENPORT      LGT RAIN  73  71  93 NW3       29.99R FOG
IOWA CITY      CLOUDY    73  72  96 SE5       29.99R
MT. PLEASANT * CLEAR     74  69  86 CALM      30.01S
MUSCATINE *    CLOUDY    72  68  88 CALM      30.00S
QUAD CITIES    TSTM      72  68  87 SW21G30   29.99R FOG
$$

IAZ062-063-075>077-085>089-095>099-250400-
   SOUTHEAST IOWA

CITY           SKY/WX    TMP DP  RH WIND       PRES   REMARKS
BURLINGTON     CLOUDY    76  76 100 W3        30.00R
FAIRFIELD *    CLOUDY    68  66  94 W3        30.00S
FORT MADISON * PTCLDY    75  73  94 CALM      30.01S
KEOKUK *       PTCLDY    77  73  88 NW5       29.99S
OSKALOOSA *    MOCLDY    66  65  96 W5        30.02R
CENTERVILLE *  LGT RAIN  72  68  88 CALM      30.04R
OTTUMWA        CLOUDY    67  66  97 W5        30.02R
WASHINGTON *   CLOUDY    70  68  94 SW5       30.00S
$$

ABBREVIATIONS USED IN REMARKS
   TC - TEMPERATURES IN CELSIUS
  WCI - WIND CHILL INDEX
   HX - HEAT INDEX
  VSB - VISIBILITY
$$





USA.gov is the U.S. government's official web portal to all federal, state and local government web resources and services.